Date String (YYYY-MM-DD hh:mm:ss) UTC,Instrument flags,absolute air pressure of the measurement (hPa),sample flow rate (lpm),inlet stack bypass flow (lpm),air temperature of the measurement (°C),ambient temperature measured by the external sensor (°C),aerosol sample conditioner tube jacket temperature (°C),OPC LED temperature (°C),internal box temperature (°C),relative humidity of the measurement (%),span deviation,mass concentration of particles derived from Lorenz-Mie calculation of OPC scattering (μg/m³),mass concentration of particles derived from Lorenz-Mie calculation of OPC scattering (μg/m³),mass concentration of particles derived from Lorenz-Mie calculation of OPC scattering (μg/m³)
DateTimeUTC,F1_M11,P_M11,Q1_M11,Q2_M11,T1_M11,T2_M11,T3_M11,T4_M11,T5_M11,U1_M11,ZSPAN_M11,X0_M11,X2_M11,X1_M11
2024-05-19 06:00:00,SystemResetWarning,0827.1,4.99,000.00,025.2,023.8,000.0,033.3,026.6,020.7,0000.0,0007.94,0003.92,0003.09
2024-05-19 06:01:00,SystemResetWarning,0827.1,5.01,000.00,024.8,021.8,000.0,033.4,025.6,021.0,0000.0,0007.85,0003.90,0003.08
2024-05-19 06:02:00,SystemResetWarning,0827.1,5.01,000.00,024.6,021.7,000.0,033.3,025.3,021.2,0000.0,0007.83,0003.92,0003.06
2024-05-19 06:03:00,SystemResetWarning,0827.1,5.00,000.00,024.4,022.0,000.0,033.2,025.4,021.4,0000.0,0007.74,0003.88,0003.06
2024-05-19 06:04:00,SystemResetWarning,0827.1,4.99,000.00,024.4,022.4,000.0,033.1,025.7,021.5,0000.0,0007.71,0003.87,0003.05
2024-05-19 06:05:00,SystemResetWarning,0827.2,5.01,000.00,024.5,022.7,000.0,033.0,026.0,021.5,0000.0,0007.61,0003.84,0003.02
2024-05-19 06:06:00,SystemResetWarning,0827.2,5.02,000.00,024.5,023.0,000.0,032.9,026.1,021.7,0000.0,0007.46,0003.79,0002.98
2024-05-19 06:07:00,SystemResetWarning,0827.3,5.00,000.00,024.5,023.2,000.0,032.9,026.2,021.7,0000.0,0007.65,0003.76,0002.95
2024-05-19 06:08:00,SystemResetWarning,0827.3,5.00,000.00,024.6,023.4,000.0,032.9,026.3,021.5,0000.0,0007.63,0003.75,0002.92
2024-05-19 06:09:00,SystemResetWarning,0827.4,5.00,000.00,024.6,023.6,000.0,032.9,026.4,021.5,0000.0,0007.93,0003.73,0002.90
2024-05-19 06:10:00,SystemResetWarning,0827.4,5.00,000.00,024.7,023.8,000.0,032.9,026.4,021.4,0000.0,0008.00,0003.73,0002.90
2024-05-19 06:11:00,SystemResetWarning,0827.4,5.00,000.00,024.7,023.9,000.0,032.9,026.5,021.2,0000.0,0007.93,0003.73,0002.89
2024-05-19 06:12:00,SystemResetWarning,0827.4,5.00,000.00,024.7,024.0,000.0,032.9,026.6,021.1,0000.0,0008.19,0003.73,0002.89
2024-05-19 06:13:00,SystemResetWarning,0827.3,5.00,000.00,024.8,024.1,000.0,032.9,026.6,021.0,0000.0,0008.69,0003.71,0002.87
2024-05-19 06:14:00,SystemResetWarning,0827.4,4.99,000.00,024.8,024.2,000.0,032.9,026.7,021.0,0000.0,0008.62,0003.68,0002.82
2024-05-19 06:15:00,SystemResetWarning,0827.3,5.00,000.00,024.9,024.2,000.0,032.9,026.7,021.0,0000.0,0008.63,0003.64,0002.80
2024-05-19 06:16:00,SystemResetWarning,0827.4,5.01,000.00,024.9,024.3,000.0,032.9,026.8,021.0,0000.0,0009.05,0003.62,0002.77
2024-05-19 06:17:00,SystemResetWarning,0827.3,5.01,000.00,024.9,024.3,000.0,032.9,026.8,021.1,0000.0,0009.27,0003.64,0002.74
2024-05-19 06:18:00,SystemResetWarning,0827.2,5.00,000.00,025.0,024.4,000.0,033.0,026.8,021.2,0000.0,0008.92,0003.63,0002.73
2024-05-19 06:19:00,SystemResetWarning,0827.2,4.99,000.00,025.0,024.4,000.0,033.0,026.9,021.4,0000.0,0009.03,0003.61,0002.70
2024-05-19 06:20:00,SystemResetWarning,0827.2,4.99,000.00,025.0,024.5,000.0,033.0,026.9,021.3,0000.0,0008.70,0003.54,0002.66
2024-05-19 06:21:00,SystemResetWarning,0827.1,5.00,000.00,025.1,024.5,000.0,033.1,026.9,021.4,0000.0,0008.74,0003.51,0002.60
2024-05-19 06:22:00,SystemResetWarning,0827.2,5.00,000.00,025.1,024.6,000.0,033.1,027.0,021.7,0000.0,0008.76,0003.48,0002.55
2024-05-19 06:23:00,SystemResetWarning,0827.1,5.01,000.00,025.1,024.6,000.0,033.1,027.0,021.7,0000.0,0008.73,0003.44,0002.47
2024-05-19 06:24:00,SystemResetWarning,0827.1,5.00,000.00,025.2,024.6,000.0,033.1,027.1,021.7,0000.0,0008.00,0003.39,0002.40
2024-05-19 06:25:00,SystemResetWarning,0827.1,5.00,000.00,025.2,024.7,000.0,033.2,027.1,021.6,0000.0,0007.72,0003.31,0002.33
2024-05-19 06:26:00,SystemResetWarning,0827.1,4.99,000.00,025.2,024.7,000.0,033.2,027.1,021.6,0000.0,0007.84,0003.24,0002.24
2024-05-19 06:27:00,SystemResetWarning,0827.1,5.00,000.00,025.3,024.7,000.0,033.2,027.1,021.7,0000.0,0007.35,0003.16,0002.16
2024-05-19 06:28:00,SystemResetWarning,0827.1,5.00,000.00,025.3,024.8,000.0,033.2,027.1,021.9,0000.0,0006.53,0003.06,0002.07
2024-05-19 06:29:00,SystemResetWarning,0827.1,5.01,000.00,025.3,024.8,000.0,033.3,027.2,021.9,0000.0,0006.39,0002.94,0001.97
2024-05-19 06:30:00,SystemResetWarning,0827.1,5.00,000.00,025.4,024.8,000.0,033.3,027.2,021.9,0000.0,0007.63,0002.81,0001.88
2024-05-19 06:31:00,SystemResetWarning,0827.1,5.00,000.00,025.4,024.8,000.0,033.3,027.2,022.0,0000.0,0007.57,0002.73,0001.81
2024-05-19 06:32:00,SystemResetWarning,0827.1,5.00,000.00,025.4,024.9,000.0,033.3,027.2,022.1,0000.0,0007.12,0002.59,0001.75
2024-05-19 06:33:00,SystemResetWarning,0827.0,5.00,000.00,025.4,024.9,000.0,033.4,027.2,022.1,0000.0,0006.53,0002.48,0001.70
2024-05-19 06:34:00,SystemResetWarning,0827.0,5.00,000.00,025.5,024.9,000.0,033.4,027.3,022.0,0000.0,0006.45,0002.41,0001.67
2024-05-19 06:35:00,SystemResetWarning,0827.0,5.00,000.00,025.5,024.9,000.0,033.4,027.3,021.9,0000.0,0006.19,0002.31,0001.63
2024-05-19 06:36:00,SystemResetWarning,0827.0,5.00,000.00,025.5,024.9,000.0,033.5,027.3,021.9,0000.0,0006.15,0002.28,0001.62
2024-05-19 06:37:00,SystemResetWarning,0826.9,5.00,000.00,025.5,025.0,000.0,033.5,027.4,021.9,0000.0,0005.69,0002.25,0001.61
2024-05-19 06:38:00,SystemResetWarning,0827.0,5.00,000.00,025.6,025.0,000.0,033.5,027.4,021.8,0000.0,0005.46,0002.22,0001.61
2024-05-19 06:39:00,SystemResetWarning,0826.8,4.99,000.00,025.5,023.8,000.0,033.6,026.7,022.0,0000.0,0005.40,0002.19,0001.61
2024-05-19 06:40:00,SystemResetWarning,0826.8,5.01,000.00,025.0,022.0,000.0,033.6,025.7,022.5,0000.0,0005.30,0002.13,0001.62
2024-05-19 06:41:00,SystemResetWarning,0826.7,5.01,000.00,024.8,021.9,000.0,033.6,025.5,022.9,0000.0,0003.72,0002.11,0001.64
2024-05-19 06:42:00,SystemResetWarning,0826.7,4.99,000.00,024.7,022.3,000.0,033.4,025.7,023.1,0000.0,0003.03,0002.08,0001.64
2024-05-19 06:43:00,SystemResetWarning,0826.8,4.99,000.00,024.7,022.6,000.0,033.3,026.0,023.2,0000.0,0003.12,0002.12,0001.64
2024-05-19 06:44:00,SystemResetWarning,0826.8,5.01,000.00,024.7,022.9,000.0,033.2,026.2,023.3,0000.0,0003.10,0002.12,0001.65
2024-05-19 06:45:00,SystemResetWarning,0826.8,5.01,000.00,024.7,023.2,000.0,033.2,026.3,023.3,0000.0,0003.18,0002.13,0001.65
2024-05-19 06:46:00,SystemResetWarning,0826.7,5.00,000.00,024.7,023.5,000.0,033.1,026.4,023.3,0000.0,0003.40,0002.19,0001.66
2024-05-19 06:47:00,SystemResetWarning,0826.8,4.99,000.00,024.8,023.7,000.0,033.1,026.5,023.1,0000.0,0003.40,0002.19,0001.67
2024-05-19 06:48:00,SystemResetWarning,0826.8,4.99,000.00,024.8,023.8,000.0,033.1,026.6,023.2,0000.0,0003.61,0002.26,0001.68
2024-05-19 06:49:00,SystemResetWarning,0826.8,5.00,000.00,024.9,024.0,000.0,033.1,026.6,023.1,0000.0,0003.66,0002.26,0001.68
2024-05-19 06:50:00,SystemResetWarning,0826.8,5.00,000.00,024.9,024.1,000.0,033.1,026.7,023.1,0000.0,0003.82,0002.30,0001.68
2024-05-19 06:51:00,SystemResetWarning,0826.8,5.00,000.00,025.0,024.2,000.0,033.1,026.8,023.1,0000.0,0003.98,0002.36,0001.69
2024-05-19 06:52:00,SystemResetWarning,0826.8,5.00,000.00,025.0,024.3,000.0,033.1,026.8,023.0,0000.0,0004.18,0002.44,0001.70
2024-05-19 06:53:00,SystemResetWarning,0826.8,5.01,000.00,025.0,024.4,000.0,033.1,026.9,023.0,0000.0,0004.20,0002.45,0001.70
2024-05-19 06:54:00,SystemResetWarning,0826.8,5.01,000.00,025.1,024.5,000.0,033.1,026.9,022.9,0000.0,0004.11,0002.41,0001.72
2024-05-19 06:55:00,SystemResetWarning,0826.9,5.01,000.00,025.1,024.5,000.0,033.2,026.9,022.9,0000.0,0004.06,0002.38,0001.72
2024-05-19 06:56:00,SystemResetWarning,0826.9,5.00,000.00,025.2,024.6,000.0,033.2,027.0,022.9,0000.0,0003.99,0002.38,0001.72
2024-05-19 06:57:00,SystemResetWarning,0826.9,5.00,000.00,025.2,024.6,000.0,033.2,027.0,022.9,0000.0,0003.95,0002.36,0001.71
2024-05-19 06:58:00,SystemResetWarning,0826.8,5.00,000.00,025.3,024.7,000.0,033.2,027.1,022.9,0000.0,0004.43,0002.44,0001.73
2024-05-19 06:59:00,SystemResetWarning,0826.8,4.99,000.00,025.3,024.8,000.0,033.3,027.1,022.8,0000.0,0004.40,0002.45,0001.73
